Flag for Australia Weather past 2 weeks in Perth, Western Australia, Australia

Now
68 °F

Sunny.


Feels Like: 68 °F
Forecast: 56 / 71 °F
Wind: 10 mph from East

Location: Belmont Perth Airport

Current Time: Sep 3, 2014 at 3:25:28 PM

Latest Report: Sep 3, 2014 at 3:00 PM


Visibility: 10 mi

Pressure: 30.12 "Hg

Humidity: 49%

Dew point: 48 °F

Location of PerthLocation

Historic Weather in Perth — Graph

°F

Perth temperature yesterday

Maximum temperature yesterday: 70 °F (at 2:30 PM)
Minimum temperature yesterday: 55 °F (at 6:00 AM)
Average temperature yesterday: 61 °F

Past Weeks' High & Low Weather Summary

 TemperatureHumidityPressure
High77 °F (Aug 28, 1:00 PM)100% (Aug 20, 3:00 AM)30.24 "Hg (Aug 20, 3:00 AM)
Low45 °F (Aug 24, 3:00 AM)25% (Aug 28, 1:30 PM)29.77 "Hg (Aug 21, 5:30 AM)
Average59 °F75%30.07 "Hg
* Reported Aug 19 1:00 PM — Sep 3 1:30 PM, Perth, Weather by CustomWeather, © 2014

Note: Actual official high and low records may vary slightly from our data, if they occured in-between our weather recording intervals... More about our weather records

Advertising

Perth weather history for previous 24 hours

 ConditionsComfort  
Time TempWeatherWind HumidityBarometerVisibility
1:30 PM
Sep 3
68 °FPartly sunny.6 mph46%30.12 "HgN/A
1:00 PM66 °FPartly sunny.6 mph56%30.12 "HgN/A
12:30 PM66 °FPartly sunny.6 mph56%30.12 "HgN/A
12:00 PM66 °FPartly sunny.2 mph60%30.15 "HgN/A
11:30 AM66 °FPartly sunny.3 mph60%30.15 "HgN/A
11:00 AM64 °FPartly sunny.2 mph64%30.15 "HgN/A
10:30 AM64 °FSunny.1 mph64%30.15 "Hg10 mi
10:00 AM64 °FSunny.6 mph64%30.18 "Hg10 mi
9:30 AM61 °FSunny.7 mph72%30.18 "Hg10 mi
9:00 AM59 °FSunny.8 mph77%30.18 "Hg10 mi
8:30 AM57 °FSunny.10 mph82%30.18 "Hg10 mi
8:00 AM57 °FSunny.10 mph82%30.15 "Hg10 mi
7:30 AM55 °FSunny.9 mph88%30.15 "Hg10 mi
7:00 AM54 °FSunny.8 mph94%30.15 "Hg10 mi
6:30 AM54 °FSunny.10 mph94%30.15 "Hg10 mi
6:00 AM54 °FSunny.8 mph94%30.12 "Hg10 mi
5:30 AM54 °FClear.9 mph94%30.12 "Hg10 mi
5:00 AM54 °FClear.9 mph100%30.12 "Hg10 mi
4:30 AM55 °FClear.8 mph94%30.12 "Hg10 mi
4:00 AM54 °FClear.6 mph100%30.09 "Hg10 mi
3:30 AM54 °FClear.3 mph94%30.09 "Hg10 mi
3:00 AM54 °FClear.6 mph94%30.09 "Hg10 mi
2:30 AM54 °FPassing clouds.No wind94%30.09 "HgN/A
2:00 AM54 °FPassing clouds.5 mph94%30.12 "HgN/A
1:30 AM54 °FPassing clouds.5 mph94%30.09 "HgN/A
1:00 AM54 °FClear.5 mph100%30.09 "Hg10 mi
12:30 AM54 °FClear.1 mph100%30.09 "Hg10 mi
12:00 AM55 °FClear.No wind94%30.09 "Hg10 mi
11:30 PM
Sep 2
55 °FClear.2 mph94%30.09 "Hg10 mi
11:00 PM57 °FClear.3 mph88%30.09 "Hg10 mi
10:30 PM57 °FClear.6 mph88%30.09 "Hg10 mi
10:00 PM59 °FClear.7 mph82%30.09 "Hg10 mi
9:00 PM61 °FClear.6 mph77%30.09 "Hg10 mi
8:30 PM61 °FClear.5 mph83%30.09 "Hg10 mi
8:00 PM63 °FClear.6 mph77%30.09 "Hg10 mi
7:30 PM63 °FClear.7 mph77%30.07 "Hg10 mi
7:00 PM64 °FClear.8 mph68%30.07 "Hg10 mi
6:30 PM64 °FClear.7 mph73%30.04 "Hg10 mi
6:00 PM64 °FClear.8 mph73%30.04 "Hg10 mi
5:30 PM64 °FClear.7 mph73%30.04 "Hg10 mi
5:00 PM64 °FClear.7 mph73%30.01 "Hg10 mi
4:30 PM66 °FSunny.7 mph68%30.01 "Hg10 mi
4:00 PM66 °FLight rain. Partly sunny.10 mph68%29.98 "HgN/A
3:30 PM66 °FLight rain. Partly sunny.10 mph60%29.98 "HgN/A
3:00 PM68 °FLight rain. Partly sunny.9 mph60%29.98 "HgN/A
Weather by CustomWeather, © 2014

See weather overviewHow to use our weather pages